Location: La Lucrais
(47.5978°N, 1.8702°W)
Time: 09:34:10
(UTC+00:00)

Daily predictions for brighter satellites

Satellite Brightness Start Highest point End
(mag) Time Altitude Azimuth Time Altitude Azimuth Time Altitude Azimuth
Cosmos 2278 Rocket 2.4 20:27:03 10° SSW 20:32:44 84° WNW 20:38:28 10° NNE
Cosmos 1741 Rocket 4.3 20:28:50 10° NNW 20:34:01 59° ENE 20:39:09 10° SE
Okean 2 Rocket 3.1 20:30:04 10° N 20:34:31 76° ENE 20:38:54 10° SSE
Resurs 01 Rocket 1.7 20:30:07 10° SSE 20:34:34 86° ENE 20:39:04 10° NNW
STARLINK-1111 4.2 20:31:09 10° WNW 20:35:15 56° NNE 20:39:19 10° E
STARLINK-1200 3.6 20:31:56 10° WSW 20:36:05 83° SSE 20:40:15 10° ENE
Meteor 1-12 Rocket 4.3 20:32:06 10° N 20:37:47 80° ENE 20:43:30 10° SSE
STARLINK-1078 4.0 20:33:55 10° WNW 20:37:59 56° SW 20:42:02 10° SE
MetOp-B 4.3 20:33:15 10° SSE 20:38:31 62° ENE 20:43:49 10° N
SL-8 R/B 3.8 20:35:20 10° W 20:40:10 89° N 20:45:00 10° ESE
STARLINK-1073 4.1 20:36:09 10° WNW 20:40:15 58° NNE 20:44:20 10° E
STARLINK-1192 3.6 20:36:57 10° WSW 20:41:05 88° SSE 20:45:15 10° ENE
Cosmos 2279 Rocket 4.1 20:36:16 10° N 20:42:32 74° E 20:48:44 10° SSE
STARLINK-1108 4.1 20:38:55 10° WNW 20:42:57 51° SW 20:46:58 10° SE
ATLAS CENTAUR R/B 3.9 20:42:48 10° NW 20:43:30 11° NNW 20:44:10 10° N
Cosmos 1850 Rocket 4.1 20:38:14 10° NNW 20:43:37 73° ENE 20:48:57 10° SSE
Cosmos 371 Rocket 3.3 20:40:00 10° SSW 20:44:50 77° ESE 20:49:44 10° NNE
SPOT 3 Rocket 4.3 20:40:04 10° S 20:45:05 53° W 20:50:09 10° NNW
STARLINK-1121 4.0 20:41:07 10° WNW 20:45:14 61° NNE 20:49:21 10° ESE
SL-4 R/B 4.1 20:44:15 10° SSE 20:45:58 12° SE 20:47:42 10° ESE
STARLINK-1244 3.7 20:41:54 10° WSW 20:46:03 87° NW 20:50:13 10° ENE
STARLINK-1071 4.2 20:43:54 10° WNW 20:47:54 48° SW 20:51:53 10° SE
Terra 3.4 20:45:07 10° ESE 20:48:42 22° ENE 20:52:17 10° NNE
Abrixas rocket 1.9 20:45:50 10° W 20:48:47 72° SSW 20:51:43 10° ESE
Cosmos 2151 Rocket 3.6 20:44:43 10° N 20:49:17 76° E 20:53:48 10° SSE
Spot 2 Rocket 3.7 20:44:41 10° SSE 20:49:39 62° ENE 20:54:38 10° N
STARLINK-1106 4.0 20:46:07 10° WNW 20:50:15 64° NNE 20:54:22 10° ESE
ERBS 4.1 20:47:20 10° W 20:50:25 36° NNW 20:53:32 10° NE
SPOT 1/Viking Rocket 4.0 20:45:39 10° SE 20:50:34 47° ENE 20:55:30 10° N
STARLINK-1138 3.7 20:46:54 10° WSW 20:51:02 82° NNW 20:55:12 10° ENE
STARLINK-1110 4.3 20:47:42 10° WNW 20:51:40 45° SW 20:55:32 10° SE
STARLINK-1112 3.9 20:51:04 10° WNW 20:55:12 68° NNE 20:59:21 10° ESE
STARLINK-1143 3.8 20:51:51 10° WSW 20:56:00 78° NNW 21:00:10 10° ENE
STARLINK-1124 4.4 20:53:55 10° WNW 20:57:50 41° SW 21:01:29 11° SSE
STARLINK-1128 3.8 20:56:02 10° WNW 21:00:11 71° NNE 21:04:20 10° ESE
STARLINK-1241 3.9 20:56:53 10° WSW 21:01:01 74° NNW 21:05:11 10° ENE
Cosmos 1331 Rocket 4.5 20:59:08 10° S 21:03:53 39° ESE 21:08:41 10° NE
deb Kosmos-1763 4.1 21:00:18 10° NNW 21:03:53 63° ENE 21:06:57 13° SSE
Cosmos 1300 Rocket 4.0 20:59:40 10° NNW 21:04:05 62° W 21:08:26 10° S
Aureole 2 Rocket 2.2 21:01:36 10° S 21:04:37 50° ESE 21:07:32 10° NNE
STARLINK-1113 3.7 21:01:01 10° WNW 21:05:11 75° NNE 21:09:15 10° ESE
STARLINK-1239 4.0 21:01:52 10° WSW 21:05:59 70° NNW 21:10:09 10° ENE
Cosmos 1437 Rocket 2.6 21:05:56 10° S 21:09:42 84° E 21:13:33 10° NNE
STARLINK-1119 3.7 21:06:02 10° WNW 21:10:12 80° NNE 21:14:04 12° ESE
STARLINK-1240 4.1 21:06:51 10° WSW 21:10:59 66° NNW 21:15:06 10° ENE
Cosmos 1378 4.1 21:09:41 14° SSE 21:12:23 31° E 21:15:41 10° NNE
ISS -1.9 21:12:15 10° W 21:14:49 20° SW 21:17:02 12° S
STARLINK-1114 3.6 21:10:59 10° WNW 21:15:09 84° NNE 21:18:49 13° ESE
STARLINK-1203 4.2 21:11:41 10° WSW 21:15:52 63° NNW 21:20:02 10° ENE
STARLINK-1216 4.1 21:11:50 10° WSW 21:15:57 63° NNW 21:20:05 10° ENE
Cosmos 304 Rocket 3.7 21:11:29 10° SSW 21:16:14 73° ESE 21:21:02 10° NNE
Meteor 1-15 Rocket 4.4 21:10:20 10° N 21:16:19 81° ENE 21:21:57 11° SSE
USA 215 4.5 21:11:37 10° ENE 21:17:38 41° N 21:23:39 10° WNW
Lacrosse 5 3.2 21:13:31 10° WNW 21:17:53 30° SW 21:22:07 11° S
STARLINK-1130 (DARKSAT) 3.6 21:15:58 10° WNW 21:20:08 89° NNE 21:23:37 14° ESE
NOSS 2-2 (D) 3.4 21:17:24 10° SSW 21:20:48 44° ESE 21:24:33 10° NE
STARLINK-1237 4.2 21:16:51 10° WSW 21:20:57 60° NNW 21:25:04 10° ENE
CENTAUR R/B 3.8 21:14:47 10° NW 21:22:20 49° NE 21:30:40 10° ESE
CZ-2C R/B 4.3 21:18:32 10° N 21:23:39 37° WNW 21:28:45 10° SW
Cosmos 1674 Rocket 3.6 21:20:31 10° S 21:24:53 82° W 21:29:20 10° N
STARLINK-1084 3.6 21:20:58 10° WNW 21:25:07 86° SSW 21:28:24 16° ESE
ATLAS 3B R/B 4.2 21:19:26 10° NNW 21:25:15 30° NNE 21:31:10 10° E
STARLINK-1202 4.3 21:21:51 10° W 21:25:57 57° NNW 21:30:03 10° ENE
SL-27 R/B 4.0 21:24:11 10° N 21:27:14 25° ENE 21:29:28 15° ESE
Cosmos 1378 Rocket 3.5 21:23:22 10° S 21:27:46 83° E 21:32:10 10° N
STARLINK-1098 3.6 21:25:57 10° WNW 21:30:06 81° SSW 21:33:11 17° SE
Cosmos 1766 3.7 21:26:17 10° N 21:30:11 48° ENE 21:32:47 19° SE
STARLINK-1123 3.6 21:30:55 10° WNW 21:35:03 76° SSW 21:37:57 19° SE
IGS 5A 4.0 21:31:56 12° S 21:35:44 56° W 21:39:51 10° NNW
STARLINK-1246 4.5 21:31:53 10° W 21:35:58 53° NNW 21:40:01 10° ENE
Cosmos 1943 Rocket 2.5 21:31:49 10° S 21:37:03 45° ESE 21:42:22 10° NE
Cosmos 2297 3.8 21:31:25 10° SSW 21:37:07 87° WNW 21:42:53 10° NNE
Cosmos 1900 4.4 21:32:17 10° NW 21:37:20 80° NE 21:41:01 19° SE
NOSS 2-2 (E) 3.1 21:34:28 10° SW 21:38:02 85° SE 21:42:09 10° NE
STARLINK-1097 3.6 21:35:55 10° WNW 21:40:04 71° SSW 21:42:45 21° SE
Landsat 7 4.4 21:36:41 11° S 21:41:07 54° W 21:45:48 10° NNW
Cosmos 2082 Rocket 3.6 21:37:30 10° NW 21:42:28 31° WSW 21:47:24 10° SSW
SeaSat 1 4.2 21:41:08 10° ENE 21:43:48 14° ESE 21:44:34 14° ESE
SAR-Lupe-2 4.4 21:41:30 10° N 21:45:00 50° WNW 21:48:30 10° SSW
STARLINK-1099 3.7 21:40:54 10° WNW 21:45:01 66° SSW 21:47:31 22° SE
Cosmos 1461 3.8 21:41:07 10° SW 21:45:13 54° NW 21:49:33 10° NNE
Cosmos 1975 Rocket 3.5 21:44:36 20° SSE 21:47:19 47° E 21:51:34 10° NNE
STARLINK-1212 4.4 21:44:42 10° NW 21:47:36 35° NNE 21:50:30 10° E
STARLINK-1105 4.4 21:45:11 10° NW 21:48:04 35° NNE 21:50:58 10° E
Meteor 1-23 Rocket 4.5 21:42:43 10° SSW 21:48:23 72° WNW 21:54:03 10° N
STARLINK-1247 4.4 21:46:03 10° NW 21:48:58 35° NNE 21:51:53 10° E
STARLINK-1227 4.4 21:46:33 10° NW 21:49:27 35° NNE 21:52:21 10° E
BREEZE-M DEB (TANK) 4.0 21:30:47 10° WSW 21:49:43 74° SSE 21:54:09 10° ENE
STARLINK-1104 3.7 21:45:53 10° WNW 21:49:58 62° SW 21:52:18 24° SE
STARLINK-1226 4.3 21:47:24 10° NW 21:50:19 35° NNE 21:53:14 10° E
BREEZE-M DEB (TANK) 3.3 21:46:15 10° W 21:50:52 68° N 21:54:23 10° E
STARLINK-1215 4.3 21:48:18 10° NW 21:51:13 36° NNE 21:54:09 10° E
STARLINK-1217 4.3 21:50:07 10° NW 21:53:03 36° NNE 21:55:59 10° E
Cosmos 2369 Rocket 2.6 21:49:04 16° S 21:53:14 44° ESE 21:58:35 10° NE
STARLINK-1229 4.3 21:51:01 10° NW 21:53:58 36° NNE 21:56:54 10° E
STARLINK-1270 4.3 21:51:55 10° NW 21:54:52 37° NNE 21:57:45 10° E
STARLINK-1144 3.8 21:50:53 10° WNW 21:54:57 57° SW 21:57:05 26° SE
STARLINK-1189 4.2 21:53:43 10° NW 21:56:40 37° NNE 21:59:29 11° E
SPOT 5 3.2 21:53:31 18° S 21:57:28 75° WSW 22:02:51 10° NNW
STARLINK-1188 4.2 21:54:37 10° NW 21:57:34 37° NNE 22:00:22 11° E
STARLINK-1187 4.1 21:55:44 10° NW 21:58:41 39° NNE 22:01:14 13° E
ATLAS CENTAUR R/B 3.3 21:59:36 14° ESE 21:59:36 14° ESE 22:01:23 10° ENE
STARLINK-1103 3.9 21:55:52 10° WNW 21:59:54 53° SW 22:01:51 27° SSE
STARLINK-1191 4.2 21:57:04 10° NW 22:00:00 38° NNE 22:02:39 12° E
STARLINK-1221 4.2 21:58:01 10° NW 22:00:58 38° NNE 22:03:35 12° E
STARLINK-1222 4.2 21:58:52 10° NW 22:01:49 38° NNE 22:04:23 13° E
NOSS 2-2 (C) 3.4 21:59:07 10° SW 22:02:40 71° NW 22:06:43 10° NE
STARLINK-1214 4.1 21:59:46 10° NW 22:02:43 39° NNE 22:05:16 13° E
ERS-1 Rocket 3.4 21:59:40 17° S 22:03:29 57° W 22:08:27 10° NNW
EXPRESS MD2 3.7 22:00:15 10° WSW 22:03:44 89° NNW 22:10:51 10° ENE
Cosmos 1025 Rocket 4.3 22:02:58 21° ESE 22:04:21 25° E 22:07:50 10° NE
Okean 2 3.3 22:02:00 22° S 22:04:38 80° E 22:08:49 10° NNE
STARLINK-1101 4.0 22:00:51 10° WNW 22:04:52 49° SW 22:06:38 29° SSE
Cosmos 2026 Rocket 4.1 22:00:23 19° S 22:05:00 65° E 22:11:19 10° NNE
Meteor 1-22 Rocket 4.3 21:59:15 10° NNW 22:05:11 86° W 22:09:05 21° S
ATLAS 2AS CENTAUR R/B 3.5 22:00:30 16° S 22:06:21 40° ESE 22:13:37 10° NE
BREEZE M DEB (TANK) 2.1 22:02:04 10° WSW 22:06:27 88° NNW 22:08:33 11° ENE
Cosmos 1553 Rocket 4.4 22:01:50 10° N 22:07:57 49° ENE 22:11:43 22° SE
BREEZE-M DEB (TANK) 4.5 21:50:46 10° WNW 22:08:08 89° SSW 22:11:56 15° ESE
STARLINK-1228 3.9 22:05:11 10° WNW 22:08:38 52° NNE 22:11:08 17° E
Cosmos 1953 4.1 22:06:01 10° NNE 22:09:04 20° ENE 22:10:41 16° E
NOSS 3-2 (A) 4.1 22:01:45 10° NW 22:09:15 79° SW 22:15:11 22° SSE
STARLINK-1102 4.1 22:05:52 10° WNW 22:09:50 45° SW 22:11:26 30° SSE
Cosmos 1805 3.9 22:06:12 10° NNW 22:10:01 50° W 22:12:24 21° SSW
Cosmos 1470 3.4 22:06:39 10° N 22:10:22 42° ENE 22:11:51 28° SE
STARLINK-1235 3.8 22:07:55 10° WNW 22:11:05 49° NNE 22:13:11 19° E
Okean 1 Rocket 4.4 22:07:30 10° NNW 22:11:33 34° W 22:15:06 12° SSW
Resurs 01 Rocket 4.4 22:10:19 10° WSW 22:11:41 11° W 22:13:03 10° WNW
Cosmos 968 Rocket 3.7 22:09:32 10° NNW 22:14:40 59° ENE 22:17:31 25° SE
STARLINK-1111 4.2 22:10:51 10° WNW 22:14:47 42° SW 22:16:12 30° S
Cosmos 1455 Rocket 3.0 22:12:57 10° N 22:17:19 84° ENE 22:19:25 30° SSE
STARLINK-1073 4.3 22:15:52 10° WNW 22:19:45 39° SW 22:21:00 31° S
ATLAS 5 CENTAUR R/B 2.9 22:21:46 25° ESE 22:21:46 25° ESE 22:23:25 10° ENE
USA 238 DEB 4.0 22:13:57 10° NW 22:21:06 69° SW 22:25:51 24° SSE
USA 238 4.0 22:14:03 10° NW 22:21:13 69° SW 22:25:58 24° SSE
SL-8 R/B 4.2 22:17:59 10° W 22:22:30 41° SSW 22:24:13 30° SSE
Cosmos 1758 3.7 22:19:54 10° N 22:23:54 53° ENE 22:25:25 33° SE
Abrixas rocket 4.0 22:21:49 10° W 22:23:18 17° SW 22:23:18 17° SW
STARLINK-1121 4.4 22:20:53 10° WNW 22:24:42 36° SW 22:25:46 30° S
SL-4 R/B 2.5 22:20:13 10° SW 22:24:49 50° SE 22:29:31 10° ENE
Terra 2.3 22:23:15 23° S 22:26:05 54° W 22:30:47 10° NNW
Cosmos 1842 3.3 22:24:08 27° SSW 22:26:10 78° W 22:30:04 10° N
Meteor 2-13 Rocket 4.4 22:23:31 21° S 22:27:48 83° E 22:34:01 10° N
STARLINK-1234 3.3 22:25:40 10° WNW 22:28:55 64° NNE 22:30:17 31° E
Cosmos 1503 Rocket 4.2 22:29:32 10° NNW 22:34:50 64° ENE 22:37:35 28° SE
STARLINK-1209 3.1 22:31:50 10° WNW 22:35:07 73° NNE 22:36:13 38° ESE
Cosmos 2263 4.1 22:39:18 22° SSW 22:43:02 77° ESE 22:48:40 10° NNE
Cosmos 1536 Rocket 3.7 22:45:43 38° SSE 22:47:07 59° E 22:51:25 10° NNE
Cosmos 1674 4.4 22:48:20 19° E 22:48:40 19° E 22:51:26 10° NE
Cosmos 1271 Rocket 2.6 22:49:29 42° S 22:50:44 89° E 22:54:41 10° NNE
Cosmos 1242 Rocket 2.9 22:49:25 33° SW 22:50:51 60° WNW 22:54:31 10° N
STARLINK-60 2.8 22:52:20 35° WSW 22:53:33 88° SSE 22:56:45 10° ENE
Meteor 1-21 4.4 22:50:09 22° SSW 22:53:52 71° WNW 22:59:29 10° N
Cosmos 1544 Rocket 3.9 22:49:49 10° NNW 22:54:04 56° W 22:55:47 33° SSW
Cosmos 1354 Rocket 4.0 22:48:51 10° NNW 22:54:11 81° ENE 22:56:35 34° SSE
COSMOS 2455 3.2 22:52:50 31° SSE 22:55:12 46° ESE 23:00:55 10° NE
Spot 4 3.8 22:53:29 35° SSE 22:55:31 79° ENE 23:00:24 10° NNW
Cosmos 1486 Rocket 4.5 22:51:05 10° NNW 22:56:13 51° WSW 22:58:32 30° SSW
Cosmos 1833 4.2 22:52:57 10° NNW 22:58:37 79° WSW 23:01:10 34° SSE
STARLINK-1205 4.4 22:55:07 10° WNW 22:59:10 50° NNE 23:03:07 11° E
USA 215 3.6 22:53:36 10° ESE 23:00:05 66° NNE 23:06:34 10° NW
Cosmos 1707 2.6 22:59:44 46° S 23:00:50 88° WNW 23:04:44 10° N
Cosmos 2297 Rocket 4.3 22:56:42 10° N 23:00:50 20° NE 23:04:56 10° E
SL-27 R/B 4.0 22:59:18 10° NW 23:02:17 25° WSW 23:03:01 23° WSW
STARLINK-1218 4.4 23:00:07 10° WNW 23:04:11 52° NNE 23:07:55 12° E
Cosmos 1174 3.9 23:06:36 44° E 23:06:36 44° E 23:09:49 10° NE
Cosmos 1726 2.1 23:02:54 10° N 23:06:39 73° E 23:07:20 55° SE
STARLINK-1254 4.3 23:05:06 10° WNW 23:09:11 54° NNE 23:12:41 14° E
ALOS 2 3.0 23:07:47 35° SE 23:09:18 54° ENE 23:13:35 10° N
COSMOS 2487 2.4 23:06:38 10° NNW 23:10:06 71° ENE 23:10:32 61° ESE
CENTAUR R/B 3.3 23:05:32 10° NW 23:13:29 62° WSW 23:18:17 29° S
STARLINK-1231 4.2 23:10:04 10° WNW 23:14:10 57° NNE 23:17:27 15° E
Meteor 1-16 Rocket 4.1 23:10:03 10° N 23:15:36 80° ENE 23:17:49 37° SSE
Cosmos 1867 3.6 23:11:15 10° NW 23:16:41 68° WSW 23:18:45 38° SSE
ATLAS 3B R/B 2.7 23:10:02 10° NW 23:16:52 84° NE 23:21:09 26° SE
EO 1 Del DPAF 3.6 23:14:34 10° N 23:18:19 59° WNW 23:19:30 38° SW
NOSS 3-2 (C) 4.4 23:11:33 10° NW 23:18:51 51° WSW 23:23:02 29° S
STARLINK-1232 4.1 23:15:04 10° WNW 23:19:11 59° NNE 23:22:15 17° E
Cosmos 1992 Rocket 4.1 23:16:14 26° SW 23:19:13 71° WNW 23:24:27 10° NNE
Cosmos 1606 Rocket 4.1 23:16:10 10° N 23:20:21 47° ENE 23:21:36 36° ESE
Cosmos 1943 Rocket 3.7 23:15:55 10° WSW 23:20:57 34° NW 23:26:03 10° NNE
SeaSat 1 2.4 23:16:57 10° NNE 23:21:55 89° WNW 23:24:20 31° SSW
STARLINK-29 3.3 23:24:02 55° ENE 23:24:02 55° ENE 23:26:39 10° ENE
STARLINK-1212 3.5 23:20:30 10° WNW 23:22:54 46° W 23:22:54 46° W
STARLINK-1105 3.5 23:20:58 10° WNW 23:23:20 45° W 23:23:20 45° W
STARLINK-1208 4.0 23:20:02 10° WNW 23:24:09 62° NNE 23:27:00 19° E
STARLINK-1247 3.5 23:21:51 10° WNW 23:24:14 45° W 23:24:14 45° W
STARLINK-1227 3.6 23:22:20 10° WNW 23:24:40 43° W 23:24:40 43° W
STARLINK-1226 3.6 23:23:11 10° WNW 23:25:31 43° W 23:25:31 43° W
ATLAS CENTAUR R/B 3.5 23:25:23 10° NNW 23:26:56 18° NNE 23:29:06 10° ENE
STARLINK-1215 3.7 23:24:06 10° WNW 23:26:23 42° W 23:26:23 42° W
NOSS 3-4 (A) 3.4 23:23:52 17° SW 23:28:35 84° NW 23:35:00 10° NE
NOSS 3-4 (C) 3.4 23:24:01 18° SW 23:28:40 85° NW 23:35:07 10° NE
STARLINK-1217 3.8 23:25:55 10° WNW 23:28:07 39° W 23:28:07 39° W
STARLINK-1271 3.9 23:25:02 10° WNW 23:29:10 65° NNE 23:31:48 21° E
STARLINK-1229 3.8 23:26:50 10° WNW 23:29:01 38° W 23:29:01 38° W
RESURS DK-1 3.0 23:29:48 38° ESE 23:29:57 38° ESE 23:33:49 10° NE
STARLINK-1270 3.9 23:27:43 10° WNW 23:29:53 37° W 23:29:53 37° W
STARLINK-1189 4.0 23:29:31 10° WNW 23:31:36 35° W 23:31:36 35° W
Meteor 2-10 4.3 23:28:01 10° NNW 23:32:55 53° W 23:34:44 35° SSW
STARLINK-1188 4.0 23:30:26 10° WNW 23:32:29 34° W 23:32:29 34° W
Cosmos 2084 4.1 23:33:36 38° SE 23:33:41 38° ESE 23:37:51 10° NE
Cosmos 2315 Rocket 4.0 23:27:54 10° N 23:34:09 79° E 23:36:59 35° SSE
STARLINK-1154 3.8 23:30:01 10° WNW 23:34:09 69° NNE 23:36:35 24° ESE
BREEZE-M R/B 4.3 23:31:45 29° SSW 23:34:28 39° SSE 23:38:36 10° E
STARLINK-1187 4.3 23:31:35 10° WNW 23:33:22 29° W 23:33:22 29° W
STARLINK-1191 4.2 23:32:53 10° WNW 23:34:47 31° W 23:34:47 31° W
Cosmos 1626 3.6 23:36:00 24° E 23:36:16 24° E 23:39:20 10° NE
STARLINK-1221 4.2 23:33:50 10° WNW 23:35:42 30° W 23:35:42 30° W
Cosmos 1340 Rocket 3.2 23:33:20 10° NNW 23:37:18 54° W 23:38:06 45° SW
Cosmos 2369 Rocket 3.6 23:32:12 10° WSW 23:37:23 35° NW 23:42:34 10° NNE
ATLAS CENTAUR R/B 1.5 23:35:43 35° SW 23:37:28 77° NW 23:41:36 10° NE
STARLINK-1222 4.3 23:34:41 10° WNW 23:36:30 29° W 23:36:30 29° W
Cosmos 2227 Rocket 3.8 23:33:12 10° NNW 23:38:08 29° NE 23:43:01 10° ESE
STARLINK-1214 4.3 23:35:36 10° WNW 23:37:23 29° W 23:37:23 29° W
STARLINK-1197 3.8 23:34:57 10° WNW 23:39:07 72° NNE 23:41:21 26° ESE
Cosmos 1025 Rocket 4.3 23:39:50 22° WSW 23:41:47 33° WNW 23:45:43 10° N
Cosmos 1908 3.0 23:38:06 10° N 23:41:57 86° E 23:42:29 65° SSE
STARLINK-1198 3.7 23:39:56 10° WNW 23:44:06 77° NNE 23:46:07 29° ESE
Aureole 3 3.1 23:41:32 10° NNW 23:44:31 54° W 23:44:31 54° W
Cosmos 1953 3.3 23:41:55 10° NNW 23:45:35 36° W 23:46:22 32° WSW
SL-4 R/B 3.3 23:50:08 17° NW 23:50:08 17° NW 23:50:52 10° NW
STARLINK-1199 3.6 23:44:57 10° WNW 23:49:06 81° NNE 23:50:55 32° ESE
Cosmos 1656 Rocket 4.4 23:46:09 17° SW 23:50:22 49° WNW 23:55:47 10° NNE
Landsat 4 4.0 23:47:09 10° NNE 23:50:46 47° E 23:51:00 46° ESE
KORONAS-FOTON 3.7 23:52:25 64° SSW 23:52:58 83° W 23:56:50 10° N
STARLINK-1210 3.5 23:49:54 10° WNW 23:54:04 85° NNE 23:55:42 36° ESE
